[[{"header":{"parameterUnit":"m.s-1","parameterCategory":1,"la1":30.2992,"la2":30.254,"lo1":-89.0895,"lo2":-89.0443,"dy":0.0025,"dx":0.0025,"nx":19,"ny":19,"refTime":"2026-04-21T21:00:00:Z","depth":0,"parameterNumber":2,"parameterNumberName":"U-component_of_WINDS"},"data":[0,0,0,-3.2355,-3.2355,-3.2335,-3.2335,-3.2351,-3.2351,0,0,0,0,0,0,0,0,0,0,0,-3.2385,-3.2386,-3.2355,-3.2355,-3.2335,-3.2335,-3.2351,-3.2351,0,0,0,0,0,0,0,0,0,0,0,-3.2384,-3.2385,-3.2387,-3.2356,-3.2335,-3.2335,-3.2351,-3.2352,0,0,0,0,0,0,0,0,0,0,-3.2364,-3.2414,-3.2385,-3.2387,-3.2356,-3.2335,-3.2335,-3.2351,-3.2352,-3.2378,0,-3.2405,0,-3.2379,-3.2355,-3.2355,0,0,0,-3.2339,-3.2414,-3.2387,-3.2387,-3.2356,-3.2335,-3.234,-3.2351,-3.2352,-3.2379,-3.2405,-3.2404,-3.2379,-3.2355,-3.2356,-3.2559,-3.2561,0,0,-3.234,-3.2394,-3.2386,-3.2388,-3.2392,-3.234,-3.2339,-3.2351,-3.2384,-3.2405,-3.2404,-3.2379,-3.2356,-3.2356,-3.2558,-3.256,0,0,0,-3.2354,-3.2396,-3.2367,-3.2389,-3.2382,-3.234,-3.2339,-3.2383,-3.2369,-3.2404,-3.2379,-3.2356,-3.2357,-3.2556,-3.2558,-3.2699,0,0,0,-3.2354,-3.2404,-3.2369,-3.2402,-3.2382,-3.2382,-3.2372,-3.2368,-3.2368,-3.2379,-3.2356,-3.2357,-3.2553,-3.2557,-3.2691,-3.2758,0,0,0,-3.2378,-3.2406,-3.2411,-3.2405,-3.2398,-3.238,-3.2366,-3.2367,-3.2354,-3.2355,-3.2357,-3.2552,-3.2556,-3.2684,-3.2746,-3.283,0,0,0,-3.242,-3.2536,-3.2415,-3.2535,-3.2399,-3.2466,-3.2366,-3.2413,-3.2431,-3.2356,-3.2554,-3.2558,-3.2682,-3.2738,-3.2823,-3.2913,-3.2955,0,0,-3.2597,-3.256,-3.2626,-3.2516,-3.262,-3.2465,-3.2589,-3.2554,-3.2504,-3.2545,-3.2549,-3.2694,-3.2745,-3.2829,-3.3164,-3.3198,0,0,0,-3.2701,-3.275,-3.2765,-3.2784,-3.2759,-3.2745,-3.2684,-3.2672,-3.2703,-3.2535,-3.2743,-3.2772,-3.2819,-3.286,-3.2889,-3.2927,-3.2578,-3.2578,-3.2577,-3.3032,-3.2962,-3.3069,-3.2997,-3.3017,-3.2954,-3.2964,-3.2937,-3.286,-3.2911,-3.2923,-3.3135,-3.3185,-3.3206,-3.3247,-3.2962,-3.2963,-3.2963,-3.2963,-3.3289,-3.3349,-3.3243,-3.331,-3.3236,-3.3291,-3.3236,-3.318,-3.3223,-3.3119,-3.3157,-3.3053,-3.3245,-3.3277,-3.2973,-3.2972,-3.297,-3.2969,-3.2969,-3.3501,-3.3518,-3.3499,-3.352,-3.3545,-3.3468,-3.3514,-3.3444,-3.3379,-3.3416,-3.3424,-3.3422,-3.3414,-3.3424,-3.3425,-3.3426,-3.3426,-3.3427,-3.3427,-3.373,-3.3704,-3.3751,-3.3735,-3.3739,-3.3736,-3.3674,-3.3677,-3.3663,-3.3609,-3.3609,-3.3531,-3.3275,-3.3215,-3.3438,-3.3436,-3.3435,-3.3434,-3.3433,-3.4023,-3.3945,-3.4018,-3.4022,-3.3999,-3.4031,-3.3939,-3.3952,-3.3944,-3.397,-3.3882,-3.3704,-3.3661,-3.3638,-3.3588,-3.3894,-3.3894,-3.3894,-3.3894,-3.4205,-3.4175,-3.4235,-3.4247,-3.425,-3.4176,-3.4264,-3.4218,-3.4159,-3.415,-3.4095,-3.4021,-3.4,-3.397,-3.394,-3.3892,-3.4269,-3.427,-3.427,-3.4383,-3.435,-3.4438,-3.4377,-3.4354,-3.4337,-3.4418,-3.4439,-3.4355,-3.4284,-3.4143,-3.4128,-3.4007,-3.3971,-3.3901,-3.3855,-3.3766,0,0]},{"header":{"parameterUnit":"m.s-1","parameterCategory":1,"la1":30.2992,"la2":30.254,"lo1":-89.0895,"lo2":-89.0443,"dy":0.0025,"dx":0.0025,"nx":19,"ny":19,"refTime":"2026-04-21T21:00:00:Z","depth":0,"parameterNumber":3,"parameterNumberName":"V-component_of_WINDS"},"data":[0,0,0,-0.7387,-0.7389,-0.7452,-0.7453,-0.7535,-0.7536,0,0,0,0,0,0,0,0,0,0,0,-0.7371,-0.7371,-0.7387,-0.7389,-0.7452,-0.7453,-0.7535,-0.7536,0,0,0,0,0,0,0,0,0,0,0,-0.737,-0.7371,-0.7372,-0.7389,-0.7452,-0.7453,-0.7535,-0.7486,0,0,0,0,0,0,0,0,0,0,-0.7425,-0.7411,-0.7371,-0.7372,-0.739,-0.7452,-0.7453,-0.7484,-0.749,-0.7508,0,-0.7525,0,-0.7532,-0.7542,-0.7542,0,0,0,-0.7387,-0.7407,-0.7422,-0.7372,-0.739,-0.7452,-0.7423,-0.7487,-0.7493,-0.7515,-0.7526,-0.7529,-0.7533,-0.7543,-0.7543,-0.7655,-0.7655,0,0,-0.7384,-0.7383,-0.7418,-0.7426,-0.7417,-0.7421,-0.7425,-0.7491,-0.7503,-0.7527,-0.7531,-0.7535,-0.7543,-0.7544,-0.7654,-0.7655,0,0,0,-0.7375,-0.7381,-0.7394,-0.7423,-0.7434,-0.7423,-0.7428,-0.75,-0.7505,-0.7532,-0.7536,-0.7544,-0.7545,-0.7653,-0.7654,-0.7683,0,0,0,-0.7373,-0.7375,-0.7393,-0.7393,-0.7433,-0.7468,-0.7436,-0.75,-0.7507,-0.7535,-0.7544,-0.7545,-0.7653,-0.7654,-0.7681,-0.7697,0,0,0,-0.7366,-0.7375,-0.7385,-0.7393,-0.742,-0.7467,-0.7475,-0.7502,-0.751,-0.7542,-0.7546,-0.7652,-0.7654,-0.7679,-0.7694,-0.7726,0,0,0,-0.7358,-0.741,-0.7385,-0.7443,-0.742,-0.7484,-0.7475,-0.7523,-0.7555,-0.7544,-0.7653,-0.7654,-0.7679,-0.7692,-0.7724,-0.7754,-0.7766,0,0,-0.7423,-0.7417,-0.7452,-0.7432,-0.7501,-0.7475,-0.7548,-0.7577,-0.7581,-0.763,-0.7632,-0.7682,-0.7694,-0.7726,-0.7833,-0.7843,0,0,0,-0.7472,-0.7497,-0.7515,-0.7545,-0.7569,-0.759,-0.7608,-0.7618,-0.766,-0.7606,-0.7702,-0.7709,-0.7728,-0.7742,-0.775,-0.7766,-0.7661,-0.7661,-0.766,-0.7563,-0.7564,-0.7621,-0.763,-0.7659,-0.7676,-0.77,-0.7717,-0.771,-0.7733,-0.7747,-0.7812,-0.7829,-0.7835,-0.7852,-0.7763,-0.7763,-0.7763,-0.7763,-0.7657,-0.7692,-0.7681,-0.7733,-0.7733,-0.7776,-0.7794,-0.7788,-0.7827,-0.7802,-0.7818,-0.779,-0.7846,-0.786,-0.7765,-0.7765,-0.7764,-0.7764,-0.7764,-0.7717,-0.7734,-0.7746,-0.7788,-0.7821,-0.7827,-0.7866,-0.7865,-0.7864,-0.7881,-0.7896,-0.7895,-0.7895,-0.7888,-0.7888,-0.7888,-0.7889,-0.7889,-0.7889,-0.7775,-0.7787,-0.782,-0.7848,-0.7866,-0.789,-0.7907,-0.7925,-0.7945,-0.7941,-0.7941,-0.7932,-0.7851,-0.783,-0.7892,-0.7892,-0.7891,-0.7891,-0.7891,-0.7871,-0.7849,-0.7899,-0.7917,-0.795,-0.7982,-0.798,-0.8016,-0.803,-0.8049,-0.8036,-0.7976,-0.797,-0.7964,-0.7947,-0.8035,-0.8035,-0.8035,-0.8035,-0.7921,-0.7918,-0.7969,-0.7998,-0.8027,-0.803,-0.8086,-0.8099,-0.8109,-0.8117,-0.8104,-0.8082,-0.8075,-0.8074,-0.8065,-0.8049,-0.8162,-0.8162,-0.8162,-0.798,-0.798,-0.8028,-0.8038,-0.8063,-0.8084,-0.8136,-0.8169,-0.8176,-0.8167,-0.8124,-0.8119,-0.8082,-0.8071,-0.8062,-0.8048,-0.8019,0,0]}]]